Flag for Brazil Weather past 2 weeks in Londrina, Paraná, Brazil

Now
84 °F

Sunny.


Feels Like: 82 °F
Forecast: N/A
Wind: 5 mph from North

Location: Londrina Aeroporto

Current Time: Aug 21, 2014 at 6:06:38 PM

Latest Report: Aug 21, 2014 at 5:00 PM


Visibility: 10 mi

Pressure: 30.07 "Hg

Humidity: 29%

Dew point: 48 °F

Location of LondrinaLocation

Historic Weather in Londrina — Graph

°F

Londrina temperature yesterday

Maximum temperature yesterday: 82 °F (at 2:00 PM)
Minimum temperature yesterday: 57 °F (at 6:00 AM)
Average temperature yesterday: 69 °F

Past Weeks' High & Low Weather Summary

 TemperatureHumidityPressure
High90 °F (Aug 12, 3:00 PM)94% (Aug 9, 2:00 AM)30.33 "Hg (Aug 9, 2:00 AM)
Low48 °F (Aug 14, 6:00 AM)24% (Aug 11, 4:00 PM)29.95 "Hg (Aug 12, 4:00 PM)
Average69 °F67%30.17 "Hg
* Reported Aug 6 5:00 PM — Aug 21 5:00 PM, Londrina, Weather by CustomWeather, © 2014

Note: Actual official high and low records may vary slightly from our data, if they occured in-between our weather recording intervals... More about our weather records

Advertising

Londrina weather history for previous 24 hours

 ConditionsComfort  
Time TempWeatherWind HumidityBarometerVisibility
5:00 PM
Aug 21
84 °FSunny.5 mph29%30.07 "Hg10 mi
4:00 PM86 °FSunny.9 mph29%30.07 "Hg10 mi
3:00 PM86 °FSunny.5 mph33%30.07 "Hg10 mi
2:00 PM84 °FSunny.6 mph37%30.09 "Hg10 mi
1:00 PM81 °FSunny.9 mph42%30.12 "Hg10 mi
12:00 PM77 °FSunny.6 mph47%30.15 "Hg10 mi
11:00 AM73 °FSunny.6 mph50%30.18 "Hg10 mi
10:00 AM70 °FSunny.6 mph57%30.18 "Hg10 mi
9:00 AM64 °FSunny.2 mph64%30.18 "Hg10 mi
8:00 AM61 °FSunny.3 mph68%30.18 "Hg10 mi
7:00 AM57 °FSunny.3 mph77%30.18 "Hg10 mi
6:00 AM59 °FSunny.1 mph72%30.15 "Hg10 mi
5:00 AM59 °FClear.2 mph72%30.15 "Hg10 mi
4:00 AM61 °FClear.No wind68%30.15 "Hg10 mi
3:00 AM61 °FClear.2 mph68%30.15 "Hg10 mi
2:00 AM63 °FClear.2 mph59%30.15 "Hg10 mi
1:00 AM63 °FClear.2 mph59%30.18 "Hg10 mi
12:00 AM64 °FClear.3 mph56%30.18 "Hg10 mi
11:00 PM
Aug 20
64 °FClear.3 mph60%30.18 "Hg10 mi
10:00 PM66 °FClear.6 mph56%30.18 "Hg10 mi
9:00 PM68 °FClear.6 mph53%30.15 "Hg10 mi
8:00 PM72 °FClear.7 mph44%30.15 "Hg10 mi
7:00 PM73 °FClear.6 mph41%30.15 "Hg10 mi
6:00 PM77 °FClear.7 mph36%30.12 "Hg10 mi
Weather by CustomWeather, © 2014

See weather overviewHow to use our weather pages